| time (UTC) | temp F | wind direction | speed MPH | gust MPH | rain 1hr in | rain 24hr in | rain mn in | humidity % | barometer mb |
| 20260509093041 | 53 | 214 | 0.0 | 0.0 | 0.00 | 0.00 | 0.00 | 87 | 1011.5 |
| 20260509091544 | 54 | 212 | 0.0 | 1.0 | 0.00 | 0.00 | 0.00 | 86 | 1011.4 |
| 20260509090042 | 54 | 205 | 0.0 | 3.0 | 0.00 | 0.00 | 0.00 | 87 | 1011.7 |
| 20260509084537 | 54 | 211 | 0.0 | 5.0 | 0.00 | 0.00 | 0.00 | 86 | 1011.8 |
| 20260509083036 | 53 | 221 | 0.0 | 0.0 | 0.00 | 0.00 | 0.00 | 86 | 1011.8 |
| 20260509081535 | 53 | 222 | 0.0 | 8.0 | 0.00 | 0.00 | 0.00 | 87 | 1012.0 |
| 20260509080033 | 52 | 220 | 0.0 | 3.0 | 0.00 | 0.00 | 0.00 | 89 | 1011.9 |
| 20260509074537 | 51 | 209 | 0.0 | 2.0 | 0.00 | 0.00 | 0.00 | 88 | 1012.0 |
| 20260509073034 | 50 | 202 | 0.0 | 0.0 | 0.00 | 0.00 | 0.00 | 88 | 1012.0 |
| 20260509071531 | 48 | 179 | 0.0 | 2.0 | 0.00 | 0.00 | 0.00 | 89 | 1011.9 |
| 20260509070033 | 48 | 191 | 0.0 | 0.0 | 0.00 | 0.00 | 0.00 | 86 | 1012.2 |
| 20260509064528 | 48 | 151 | 0.0 | 0.0 | 0.00 | 0.00 | 0.00 | 85 | 1012.2 |
| 20260509063033 | 49 | 152 | 0.0 | 0.0 | 0.00 | 0.00 | 0.00 | 84 | 1012.4 |
| 20260509061522 | 49 | 149 | 0.0 | 0.0 | 0.00 | 0.00 | 0.00 | 83 | 1012.5 |
| 20260509060019 | 50 | 166 | 0.0 | 0.0 | 0.00 | 0.00 | 0.00 | 82 | 1012.7 |
| 20260509054516 | 51 | 179 | 0.0 | 0.0 | 0.00 | 0.00 | 0.00 | 81 | 1012.8 |
| 20260509053015 | 52 | 218 | 0.0 | 3.0 | 0.00 | 0.00 | 0.00 | 81 | 1012.7 |
| 20260509051510 | 52 | 168 | 0.0 | 0.0 | 0.00 | 0.00 | 0.00 | 80 | 1013.0 |
| 20260509050018 | 52 | 199 | 0.0 | 0.0 | 0.00 | 0.00 | 0.00 | 80 | 1013.1 |
| 20260509044507 | 52 | 214 | 0.0 | 0.0 | 0.00 | 0.00 | 0.00 | 81 | 1013.1 |
| 20260509043006 | 52 | 213 | 0.0 | 1.0 | 0.00 | 0.00 | 0.00 | 81 | 1013.3 |
| 20260509041503 | 53 | 208 | 0.0 | 0.0 | 0.00 | 0.00 | 0.00 | 79 | 1013.3 |
| 20260509040059 | 54 | 199 | 0.0 | 0.0 | 0.00 | 0.00 | 0.00 | 76 | 1013.3 |
| 20260509034558 | 56 | 199 | 0.0 | 0.0 | 0.00 | 0.00 | 0.00 | 74 | 1013.2 |
| 20260509033058 | 57 | 222 | 0.0 | 0.0 | 0.00 | 0.00 | 0.00 | 73 | 1013.2 |
| 20260509031609 | 57 | 223 | 0.0 | 0.0 | 0.00 | 0.00 | 0.00 | 72 | 1013.4 |
| 20260509030104 | 58 | 228 | 0.0 | 1.0 | 0.00 | 0.00 | 0.00 | 71 | 1013.4 |
| 20260509024557 | 58 | 214 | 0.0 | 2.0 | 0.00 | 0.00 | 0.00 | 70 | 1013.4 |
| 20260509023111 | 58 | 214 | 0.0 | 2.0 | 0.00 | 0.00 | 0.00 | 70 | 1013.4 |
| 20260509021556 | 58 | 216 | 0.0 | 3.0 | 0.00 | 0.00 | 0.00 | 69 | 1013.2 |
| 20260509020058 | 59 | 213 | 0.0 | 3.0 | 0.00 | 0.00 | 0.00 | 69 | 1013.3 |
| 20260509014555 | 59 | 224 | 0.0 | 3.0 | 0.00 | 0.00 | 0.00 | 68 | 1013.2 |
| 20260509013053 | 59 | 224 | 0.0 | 7.0 | 0.00 | 0.00 | 0.00 | 68 | 1013.3 |
| 20260509011555 | 59 | 214 | 0.0 | 5.0 | 0.00 | 0.00 | 0.00 | 67 | 1013.1 |
| 20260509010059 | 59 | 213 | 1.0 | 6.0 | 0.00 | 0.00 | 0.00 | 67 | 1012.8 |
| 20260509004601 | 60 | 220 | 0.0 | 6.0 | 0.00 | 0.00 | 0.00 | 66 | 1012.6 |
| 20260509003057 | 60 | 218 | 0.0 | 2.0 | 0.00 | 0.00 | 0.00 | 65 | 1012.4 |
| 20260509001551 | 61 | 212 | 0.0 | 3.0 | 0.00 | 0.00 | 0.00 | 63 | 1012.1 |
| 20260509000050 | 61 | 229 | 0.0 | 4.0 | 0.00 | 0.00 | 0.00 | 61 | 1012.0 |
| 20260508234554 | 62 | 222 | 0.0 | 3.0 | 0.00 | 0.00 | 0.00 | 60 | 1012.0 |
| 20260508233054 | 62 | 212 | 0.0 | 2.0 | 0.00 | 0.00 | 0.00 | 57 | 1011.8 |
| 20260508231552 | 63 | 226 | 0.0 | 3.0 | 0.00 | 0.00 | 0.00 | 55 | 1011.8 |
| 20260508230122 | 64 | 231 | 0.0 | 6.0 | 0.00 | 0.00 | 0.00 | 53 | 1011.6 |
| 20260508224550 | 65 | 216 | 0.0 | 3.0 | 0.00 | 0.00 | 0.00 | 48 | 1011.5 |
| 20260508223047 | 65 | 230 | 0.0 | 4.0 | 0.00 | 0.00 | 0.00 | 45 | 1011.4 |
| 20260508221546 | 65 | 234 | 1.0 | 11.0 | 0.00 | 0.00 | 0.00 | 45 | 1011.5 |
| 20260508220105 | 65 | 228 | 1.0 | 9.0 | 0.00 | 0.00 | 0.00 | 43 | 1011.5 |
| 20260508220012 | 66 | 243 | 0.0 | 1.0 | 0.00 | 0.00 | 0.00 | 43 | 1011.1 |
| 20260508214544 | 66 | 231 | 1.0 | 11.0 | 0.00 | 0.00 | 0.00 | 41 | 1011.4 |
| 20260508213047 | 66 | 222 | 0.0 | 15.0 | 0.00 | 0.00 | 0.00 | 43 | 1011.3 |
| 20260508211547 | 66 | 239 | 3.0 | 17.0 | 0.00 | 0.00 | 0.00 | 43 | 1011.3 |
| 20260508210040 | 67 | 244 | 2.0 | 19.0 | 0.00 | 0.00 | 0.00 | 42 | 1011.4 |
| 20260508204543 | 68 | 278 | 3.0 | 22.0 | 0.00 | 0.00 | 0.00 | 38 | 1011.4 |
| 20260508203042 | 68 | 230 | 11.0 | 24.0 | 0.00 | 0.00 | 0.00 | 38 | 1011.5 |
| 20260508201543 | 68 | 269 | 7.0 | 20.0 | 0.00 | 0.00 | 0.00 | 38 | 1011.5 |
| 20260508200036 | 66 | 258 | 10.0 | 22.0 | 0.00 | 0.00 | 0.00 | 42 | 1011.9 |
| 20260508194536 | 66 | 226 | 12.0 | 25.0 | 0.00 | 0.00 | 0.00 | 42 | 1012.0 |
| 20260508193034 | 67 | 213 | 9.0 | 20.0 | 0.00 | 0.00 | 0.00 | 41 | 1012.2 |
| 20260508191533 | 67 | 258 | 6.0 | 17.0 | 0.00 | 0.00 | 0.00 | 42 | 1012.3 |
| 20260508190039 | 67 | 234 | 2.0 | 17.0 | 0.00 | 0.00 | 0.00 | 44 | 1012.4 |
| 20260508184540 | 66 | 239 | 4.0 | 20.0 | 0.00 | 0.00 | 0.00 | 46 | 1012.6 |
| 20260508183028 | 64 | 270 | 4.0 | 18.0 | 0.00 | 0.00 | 0.00 | 45 | 1012.8 |
| 20260508181536 | 66 | 271 | 5.0 | 39.0 | 0.00 | 0.00 | 0.00 | 45 | 1013.0 |
| 20260508180025 | 65 | 264 | 3.0 | 18.0 | 0.00 | 0.00 | 0.00 | 45 | 1013.0 |
| 20260508174534 | 65 | 250 | 3.0 | 18.0 | 0.00 | 0.00 | 0.00 | 45 | 1013.1 |
| 20260508173023 | 64 | 279 | 5.0 | 14.0 | 0.00 | 0.00 | 0.00 | 45 | 1013.4 |
| 20260508171523 | 65 | 302 | 6.0 | 16.0 | 0.00 | 0.00 | 0.00 | 42 | 1013.3 |
| 20260508170022 | 65 | 301 | 8.0 | 19.0 | 0.00 | 0.00 | 0.00 | 46 | 1013.3 |
| 20260508164519 | 64 | 247 | 1.0 | 23.0 | 0.00 | 0.00 | 0.00 | 47 | 1013.3 |
| 20260508163029 | 64 | 274 | 3.0 | 19.0 | 0.00 | 0.00 | 0.00 | 46 | 1013.6 |
| 20260508161524 | 62 | 224 | 11.0 | 26.0 | 0.00 | 0.00 | 0.00 | 47 | 1013.7 |
| 20260508160015 | 62 | 256 | 9.0 | 32.0 | 0.00 | 0.00 | 0.00 | 47 | 1014.2 |
| 20260508154512 | 62 | 268 | 3.0 | 23.0 | 0.00 | 0.00 | 0.00 | 49 | 1014.4 |
| 20260508153009 | 61 | 277 | 5.0 | 19.0 | 0.00 | 0.00 | 0.00 | 48 | 1014.6 |
| 20260508151506 | 60 | 235 | 6.0 | 18.0 | 0.00 | 0.00 | 0.00 | 47 | 1014.7 |
| 20260508150004 | 60 | 219 | 0.0 | 15.0 | 0.00 | 0.00 | 0.00 | 52 | 1014.9 |
| 20260508144502 | 59 | 236 | 1.0 | 14.0 | 0.00 | 0.00 | 0.00 | 49 | 1015.0 |
| 20260508143100 | 58 | 226 | 4.0 | 11.0 | 0.00 | 0.00 | 0.00 | 53 | 1015.1 |
| 20260508141559 | 56 | 262 | 0.0 | 6.0 | 0.00 | 0.00 | 0.00 | 53 | 1015.1 |
| 20260508140053 | 56 | 229 | 0.0 | 7.0 | 0.00 | 0.00 | 0.00 | 58 | 1015.1 |
| 20260508134602 | 57 | 214 | 4.0 | 10.0 | 0.00 | 0.00 | 0.00 | 55 | 1015.1 |
| 20260508133051 | 56 | 225 | 0.0 | 5.0 | 0.00 | 0.00 | 0.00 | 54 | 1015.2 |
| 20260508131548 | 56 | 236 | 0.0 | 6.0 | 0.00 | 0.00 | 0.00 | 65 | 1015.4 |
| 20260508130044 | 54 | 258 | 1.0 | 7.0 | 0.00 | 0.00 | 0.00 | 62 | 1015.5 |
| 20260508124540 | 53 | 232 | 1.0 | 10.0 | 0.00 | 0.00 | 0.00 | 66 | 1015.3 |
| 20260508123037 | 51 | 253 | 0.0 | 0.0 | 0.00 | 0.00 | 0.00 | 69 | 1015.5 |
| 20260508121547 | 0 | 0.0 | 0.0 | 0.31 | 0.00 | 0.00 | |||
| 20260508121539 | 49 | 262 | 0.0 | 0.0 | 0.00 | 0.00 | 0.00 | 76 | 1015.3 |
| 20260508121510 | 50 | 264 | 0.0 | 0.0 | 0.00 | 0.00 | 0.00 | 77 | 1014.9 |
| 20260508121012 | 48 | 268 | 0.0 | 0.0 | 0.00 | 0.00 | 0.00 | 79 | 1014.8 |
| 20260508120510 | 47 | 269 | 0.0 | 0.0 | 0.00 | 0.00 | 0.00 | 81 | 1014.7 |
| 20260508120133 | 46 | 268 | 0.0 | 0.0 | 0.00 | 0.00 | 0.00 | 85 | 1015.1 |
| 20260508120010 | 47 | 277 | 0.0 | 0.0 | 0.00 | 0.00 | 0.00 | 85 | 1014.7 |
| 20260508115010 | 45 | 307 | 0.0 | 0.0 | 0.00 | 0.00 | 0.00 | 92 | 1014.8 |
| 20260508114657 | 43 | 310 | 0.0 | 0.0 | 0.00 | 0.00 | 0.00 | 93 | 1015.1 |
| 20260508114511 | 44 | 310 | 0.0 | 0.0 | 0.00 | 0.00 | 0.00 | 93 | 1014.7 |
| 20260508113102 | 42 | 37 | 0.0 | 0.0 | 0.00 | 0.00 | 0.00 | 93 | 1015.0 |
| 20260508111552 | 41 | 39 | 0.0 | 0.0 | 0.00 | 0.00 | 0.00 | 94 | 1014.8 |
| 20260508110051 | 39 | 39 | 0.0 | 0.0 | 0.00 | 0.00 | 0.00 | 93 | 1014.8 |
| 20260508104549 | 39 | 39 | 0.0 | 0.0 | 0.00 | 0.00 | 0.00 | 92 | 1014.5 |
| 20260508103049 | 38 | 43 | 0.0 | 0.0 | 0.00 | 0.00 | 0.00 | 91 | 1014.5 |
| 20260508101546 | 38 | 43 | 0.0 | 0.0 | 0.00 | 0.00 | 0.00 | 90 | 1014.4 |
| 20260508100043 | 39 | 43 | 0.0 | 0.0 | 0.00 | 0.00 | 0.00 | 89 | 1014.2 |
| 20260508094602 | 39 | 44 | 0.0 | 0.0 | 0.00 | 0.00 | 0.00 | 88 | 1014.0 |